Tracking 20753 objects as of 7-Jun-2020
HD Live streaming from Space Station
objects crossing your sky now
Track the most recent launched group of Starlink satellites

COSMOS 2340

Track COSMOS 2340 now!
COSMOS 2340 is classified as:


NORAD ID: 24761
Int'l Code: 1997-015A
Perigee: 3,169.4 km
Apogee: 37,216.4 km
Inclination: 66.9 °
Period: 718.1 minutes
Semi major axis: 26563 km
RCS: 6.3095 m2 (large)
Launch date: April 9, 1997
Source: Commonwealth of Independent States (former USSR) (CIS)
Launch site: PLESETSK MISSILE AND SPACE COMPLEX (PKMTR)
aabbcc
Your satellite tracking list
Your tracking list is empty




NASA's NSSDC Master Catalog

Two Line Element Set (TLE):
1 24761U 97015A   20158.45812638 +.00000388 +00000-0 +00000-0 0  9994
2 24761 066.8590 341.7669 6408498 179.0297 183.5246 02.00522995169667
Source of the keplerian elements: AFSPC